GAOFEN-10R

Last updated on Sat Oct 25 2025 00:02:33 GMT+0000 (Coordinated Universal Time)

1 44622U 19066A 25297.73409687 .00002488 00000+0 31450-3 0 9996 2 44622 98.0196 245.0714 0007241 173.3401 186.7909 14.82765799327481
UTC large
Height (km)
Speed (km/s)
/
Latitude / Longitude
Inclination (degrees)
Orbital Period (minutes)
Azimuth
Elevation
Range (km)
Doppler Factor

Next 0 passes for location: London (51.5072 / 0.1276)

Sorry there are no passes over London.